Wetterdaten: aktuell Dienstag, 14.07.2020 00:01
Datum Zeit Temperatur Bodentemp. Luftfeuchte Luftdruck Regen Wind Richtung Richtung Sonnenschein
14.07.2020 00:01 14,7 C 5,8 C 82 % 1019 hPa 0,0 l/m 0,0 km/h (0 Bft) N 355 0 min
13.07.2020 23:56 15,1 C 5,8 C 80 % 1018 hPa 0,0 l/m 0,0 km/h (0 Bft) N 355 0 min
13.07.2020 23:51 15,1 C 5,9 C 79 % 1018 hPa 0,0 l/m 0,0 km/h (0 Bft) N 355 0 min
13.07.2020 23:46 15,1 C 6,0 C 78 % 1019 hPa 0,0 l/m 0,0 km/h (0 Bft) N 355 0 min
13.07.2020 23:41 15,0 C 6,0 C 79 % 1019 hPa 0,0 l/m 0,0 km/h (0 Bft) N 355 0 min
13.07.2020 23:36 15,2 C 6,0 C 79 % 1019 hPa 0,0 l/m 0,0 km/h (0 Bft) N 355 0 min
13.07.2020 23:30 15,5 C 6,0 C 76 % 1019 hPa 0,0 l/m 0,0 km/h (0 Bft) N 355 0 min
13.07.2020 23:26 15,5 C 6,1 C 72 % 1019 hPa 0,0 l/m 0,0 km/h (0 Bft) N 355 0 min
13.07.2020 23:21 15,5 C 6,2 C 72 % 1019 hPa 0,0 l/m 0,0 km/h (0 Bft) N 355 0 min
13.07.2020 23:16 15,5 C 6,2 C 73 % 1019 hPa 0,0 l/m 0,0 km/h (0 Bft) N 355 0 min
13.07.2020 23:11 15,5 C 6,2 C 74 % 1019 hPa 0,0 l/m 0,0 km/h (0 Bft) N 355 0 min
13.07.2020 23:06 15,9 C 6,2 C 72 % 1019 hPa 0,0 l/m 0,0 km/h (0 Bft) N 355 0 min
13.07.2020 23:01 15,8 C 6,3 C 67 % 1019 hPa 0,0 l/m 0,0 km/h (0 Bft) N 355 0 min
13.07.2020 22:55 16,2 C 6,5 C 66 % 1019 hPa 0,0 l/m 0,0 km/h (0 Bft) N 355 0 min
13.07.2020 22:51 16,6 C 6,5 C 63 % 1019 hPa 0,0 l/m 0,0 km/h (0 Bft) N 355 0 min
13.07.2020 22:46 16,5 C 6,6 C 61 % 1019 hPa 0,0 l/m 0,0 km/h (0 Bft) N 355 0 min
13.07.2020 22:41 16,5 C 6,6 C 62 % 1019 hPa 0,0 l/m 0,0 km/h (0 Bft) N 355 0 min
13.07.2020 22:36 16,6 C 6,7 C 61 % 1019 hPa 0,0 l/m 0,0 km/h (0 Bft) N 355 0 min
13.07.2020 22:31 16,6 C 6,7 C 60 % 1019 hPa 0,0 l/m 0,0 km/h (0 Bft) N 355 0 min
13.07.2020 22:26 16,4 C 6,9 C 59 % 1019 hPa 0,0 l/m 0,0 km/h (0 Bft) N 355 0 min
13.07.2020 22:21 16,5 C 7,0 C 59 % 1019 hPa 0,0 l/m 0,0 km/h (0 Bft) N 355 0 min
13.07.2020 22:16 16,6 C 7,0 C 59 % 1019 hPa 0,0 l/m 0,0 km/h (0 Bft) N 355 0 min
13.07.2020 22:11 16,8 C 7,0 C 57 % 1019 hPa 0,0 l/m 0,0 km/h (0 Bft) N 355 0 min
13.07.2020 22:06 17,3 C 6,9 C 57 % 1019 hPa 0,0 l/m 0,0 km/h (0 Bft) N 355 0 min
13.07.2020 22:01 17,9 C 7,0 C 53 % 1019 hPa 0,0 l/m 0,0 km/h (0 Bft) N 355 0 min
13.07.2020 21:56 18,1 C 7,1 C 49 % 1019 hPa 0,0 l/m 0,0 km/h (0 Bft) N 355 0 min
13.07.2020 21:51 18,4 C 7,2 C 46 % 1019 hPa 0,0 l/m 0,0 km/h (0 Bft) N 355 0 min
13.07.2020 21:46 18,6 C 7,2 C 43 % 1019 hPa 0,0 l/m 0,0 km/h (0 Bft) N 355 0 min
13.07.2020 21:41 18,6 C 7,2 C 42 % 1019 hPa 0,0 l/m 0,0 km/h (0 Bft) N 355 0 min
13.07.2020 21:36 18,9 C 7,3 C 40 % 1019 hPa 0,0 l/m 0,0 km/h (0 Bft) N 355 0 min
13.07.2020 21:31 19,2 C 7,4 C 39 % 1019 hPa 0,0 l/m 0,0 km/h (0 Bft) N 355 0 min
13.07.2020 21:26 19,5 C 7,4 C 39 % 1019 hPa 0,0 l/m 0,0 km/h (0 Bft) N 355 0 min
13.07.2020 21:21 19,8 C 7,6 C 39 % 1019 hPa 0,0 l/m 0,0 km/h (0 Bft) N 355 0 min
13.07.2020 21:16 20,2 C 7,6 C 35 % 1019 hPa 0,0 l/m 0,0 km/h (0 Bft) N 355 0 min
13.07.2020 21:11 20,2 C 7,6 C 35 % 1019 hPa 0,0 l/m 0,0 km/h (0 Bft) N 355 0 min
13.07.2020 21:06 20,6 C 7,6 C 36 % 1019 hPa 0,0 l/m 0,0 km/h (0 Bft) N 355 0 min
13.07.2020 21:01 21,4 C 7,6 C 36 % 1019 hPa 0,0 l/m 0,0 km/h (0 Bft) N 355 0 min
13.07.2020 20:56 22,3 C 7,6 C 29 % 1019 hPa 0,0 l/m 0,0 km/h (0 Bft) N 355 0 min
13.07.2020 20:51 22,8 C 7,5 C 28 % 1019 hPa 0,0 l/m 0,0 km/h (0 Bft) N 355 0 min
13.07.2020 20:46 23,9 C 7,6 C 23 % 1019 hPa 0,0 l/m 0,0 km/h (0 Bft) N 355 0 min
13.07.2020 20:41 24,2 C 7,6 C 28 % 1019 hPa 0,0 l/m 0,0 km/h (0 Bft) N 355 0 min
13.07.2020 20:36 23,7 C 7,6 C 27 % 1019 hPa 0,0 l/m 0,0 km/h (0 Bft) N 355 0 min
13.07.2020 20:31 23,4 C 7,6 C 31 % 1019 hPa 0,0 l/m 0,0 km/h (0 Bft) N 355 0 min
13.07.2020 20:26 23,1 C 7,7 C 27 % 1019 hPa 0,0 l/m 0,0 km/h (0 Bft) N 355 0 min
13.07.2020 20:21 23,3 C 7,7 C 22 % 1019 hPa 0,0 l/m 0,0 km/h (0 Bft) N 355 0 min
13.07.2020 20:16 23,2 C 7,6 C 23 % 1019 hPa 0,0 l/m 0,0 km/h (0 Bft) N 355 0 min
13.07.2020 20:11 23,5 C 7,7 C 24 % 1019 hPa 0,0 l/m 0,0 km/h (0 Bft) N 355 0 min
13.07.2020 20:06 23,3 C 7,7 C 26 % 1019 hPa 0,0 l/m 0,0 km/h (0 Bft) N 355 0 min
13.07.2020 20:01 23,5 C 7,7 C 23 % 1019 hPa 0,0 l/m 0,0 km/h (0 Bft) N 355 0 min
_ Min-Zeit 04:36 05:16 11:11 23:51 - 01:01 - - -
Minimum _ 8,1 C 2,1 C 5 % 1018 hPa - 0,0 km/h (0 Bft) - - -
_ Max-Zeit 17:46 09:36 06:06 01:01 01:01 09:36 - - 11:11
Maximum _ 25,8 C 11,5 C 100 % 1026 hPa 0,0 l/m 12,1 km/h
O-SO (2 Bft)
- - 5 min
Durchschnitt _ 18,0 C 5,6 C 45 % 1023 hPa #0,0 l/m 2,1 km/h (1 Bft) N-NW - #0 min.